MET5914 - Philadelphia to Boston

Bombardier Dash-8-Q400
850AV
1 hr 15 mins
244 nm
Scheduled - Daily

Bid/PiRep Status

Bid was submitted on Dec 21 2016.

PiRep # 74430: Approved by Sean Doyle on December 23rd, 2016 4:06 UTC

Departure

Departing from
Philadelphia (PHL)
Departure gate
Scheduled Departure
GMT 1835
Local 1435
METAR KPHL 270754Z 26007KT 10SM CLR 15/11 A2989 RMK AO2 SLP120 T01500111
TAF KPHL 270537Z 2706/2812 29006KT P6SM SCT050 FM271400 24004KT P6SM BKN120 TEMPO 2718/2722 -SHRA OVC050 FM272300 11006KT P6SM BKN060 FM280600 05006KT P6SM BKN250

Route Map

Planning Resources

KPHL-BRAND-RBV-JOANI-CREEL-SHLEP-HOFFI-HTO-SEY-BURDY-KBOS
DITCH V312 DRIFT V139 MANTA V308 ORW V16 WOONS
BRAND DCT RBV DCT JOANI DCT CREEL DCT SHLEP DCT HOFFI DCT HTO DCT SEY DCT BURDY DCT
PHLS DITCH V312 DRIFT V308 ORW WOONS
DITCH V312 DRIFT V139 PLUME V268 KOPPY V308 RICED V139 BEDYA V268 SHLEP V139 BEADS V308 ORW WOONS
Route:
OFP Layout:
Units:
Detailed Navlog:
ETOPS Planning:
Plan Stepclimbs:
Runway Analysis:
Include NOTAMS:
FIR NOTAMS:
Flight Maps:

Return Flights

MET5911
Bombardier Dash-8-Q400
1140 GMT
MET5913
Bombardier Dash-8-Q400
1640 GMT
MET5917
Bombardier Dash-8-Q400
0240 GMT

Popularity

Hub Current Bids PiReps this month Total PiReps
KMCI 0 0 1
KLAX 0 0 3
KBOS 0 0 4